| time (UTC) | temp F | wind direction | speed MPH | gust MPH | rain 1hr in | rain 24hr in | rain mn in | humidity % | barometer mb |
| 20260902073348 | 75 | 38 | 0.0 | 0.0 | 0.00 | 0.00 | 0.00 | 90 | 1020.7 |
| 20260902072847 | 75 | 38 | 0.0 | 0.0 | 0.00 | 0.00 | 0.00 | 90 | 1020.6 |
| 20260902072347 | 75 | 38 | 0.0 | 0.0 | 0.00 | 0.00 | 0.00 | 90 | 1020.7 |
| 20260902071904 | 75 | 38 | 0.0 | 0.0 | 0.00 | 0.00 | 0.00 | 90 | 1020.8 |
| 20260902071342 | 75 | 38 | 0.0 | 0.0 | 0.00 | 0.00 | 0.00 | 90 | 1020.9 |
| 20260902070841 | 75 | 38 | 0.0 | 0.0 | 0.00 | 0.00 | 0.00 | 89 | 1020.8 |
| 20260902070337 | 75 | 38 | 0.0 | 0.0 | 0.00 | 0.00 | 0.00 | 89 | 1020.9 |
| 20260902065835 | 75 | 38 | 0.0 | 0.0 | 0.00 | 0.00 | 0.00 | 88 | 1020.9 |
| 20260902065335 | 75 | 38 | 0.0 | 0.0 | 0.00 | 0.00 | 0.00 | 88 | 1020.8 |
| 20260902064836 | 76 | 38 | 0.0 | 0.0 | 0.00 | 0.00 | 0.00 | 88 | 1020.8 |
| 20260902064334 | 76 | 38 | 0.0 | 0.0 | 0.00 | 0.00 | 0.00 | 88 | 1020.9 |
| 20260902063833 | 76 | 38 | 0.0 | 0.0 | 0.00 | 0.00 | 0.00 | 88 | 1020.8 |
| 20260902063349 | 76 | 38 | 0.0 | 0.0 | 0.00 | 0.00 | 0.00 | 88 | 1020.9 |
| 20260902062845 | 76 | 38 | 0.0 | 0.0 | 0.00 | 0.00 | 0.00 | 87 | 1020.9 |
| 20260902062344 | 76 | 38 | 0.0 | 0.0 | 0.00 | 0.00 | 0.00 | 87 | 1020.9 |
| 20260902061841 | 76 | 38 | 0.0 | 0.0 | 0.00 | 0.00 | 0.00 | 87 | 1021.0 |
| 20260902061339 | 76 | 38 | 0.0 | 0.0 | 0.00 | 0.00 | 0.00 | 87 | 1021.0 |
| 20260902060913 | 76 | 38 | 0.0 | 0.0 | 0.00 | 0.00 | 0.00 | 87 | 1020.9 |
| 20260902060408 | 76 | 38 | 0.0 | 0.0 | 0.00 | 0.00 | 0.00 | 87 | 1021.0 |
| 20260902055904 | 77 | 38 | 0.0 | 0.0 | 0.00 | 0.00 | 0.00 | 87 | 1021.0 |
| 20260902055342 | 77 | 38 | 0.0 | 0.0 | 0.00 | 0.00 | 0.00 | 86 | 1020.9 |
| 20260902054900 | 77 | 38 | 0.0 | 0.0 | 0.00 | 0.00 | 0.00 | 86 | 1021.0 |
| 20260902054338 | 77 | 38 | 0.0 | 0.0 | 0.00 | 0.00 | 0.00 | 85 | 1021.0 |
| 20260902053850 | 77 | 38 | 0.0 | 0.0 | 0.00 | 0.00 | 0.00 | 86 | 1021.0 |
| 20260902053345 | 77 | 38 | 0.0 | 0.0 | 0.00 | 0.00 | 0.00 | 85 | 1021.1 |
| 20260902052841 | 77 | 38 | 0.0 | 0.0 | 0.00 | 0.00 | 0.00 | 85 | 1021.1 |
| 20260902052340 | 78 | 38 | 0.0 | 0.0 | 0.00 | 0.00 | 0.00 | 85 | 1021.0 |
| 20260902051837 | 78 | 38 | 0.0 | 0.0 | 0.00 | 0.00 | 0.00 | 85 | 1020.9 |
| 20260902051336 | 78 | 38 | 0.0 | 0.0 | 0.00 | 0.00 | 0.00 | 85 | 1021.0 |
| 20260902050836 | 78 | 38 | 0.0 | 0.0 | 0.00 | 0.00 | 0.00 | 85 | 1021.0 |
| 20260902050330 | 78 | 38 | 0.0 | 0.0 | 0.00 | 0.00 | 0.00 | 85 | 1021.0 |
| 20260902045847 | 78 | 38 | 0.0 | 0.0 | 0.00 | 0.00 | 0.00 | 85 | 1021.0 |
| 20260902045344 | 78 | 38 | 0.0 | 0.0 | 0.00 | 0.00 | 0.00 | 84 | 1020.9 |
| 20260902044841 | 79 | 38 | 0.0 | 0.0 | 0.00 | 0.00 | 0.00 | 84 | 1021.0 |
| 20260902044340 | 79 | 38 | 0.0 | 0.0 | 0.00 | 0.00 | 0.00 | 84 | 1021.0 |
| 20260902043839 | 79 | 38 | 0.0 | 0.0 | 0.00 | 0.00 | 0.00 | 84 | 1021.1 |
| 20260902043335 | 79 | 38 | 0.0 | 0.0 | 0.00 | 0.00 | 0.00 | 83 | 1021.0 |
| 20260902042849 | 79 | 38 | 0.0 | 0.0 | 0.00 | 0.00 | 0.00 | 83 | 1021.0 |
| 20260902042408 | 79 | 38 | 0.0 | 0.0 | 0.00 | 0.00 | 0.00 | 84 | 1021.0 |
| 20260902041844 | 79 | 38 | 0.0 | 0.0 | 0.00 | 0.00 | 0.00 | 84 | 1020.6 |
| 20260902041402 | 80 | 38 | 0.0 | 0.0 | 0.00 | 0.00 | 0.00 | 84 | 1020.9 |
| 20260902040838 | 80 | 38 | 0.0 | 0.0 | 0.00 | 0.00 | 0.00 | 83 | 1021.1 |
| 20260902040334 | 80 | 38 | 0.0 | 0.0 | 0.00 | 0.00 | 0.00 | 83 | 1021.0 |
| 20260902035849 | 80 | 38 | 0.0 | 0.0 | 0.00 | 0.00 | 0.00 | 81 | 1021.0 |
| 20260902035347 | 80 | 38 | 0.0 | 0.0 | 0.00 | 0.00 | 0.00 | 81 | 1021.1 |
| 20260902034904 | 80 | 38 | 0.0 | 0.0 | 0.00 | 0.00 | 0.00 | 83 | 1021.2 |
| 20260902034343 | 81 | 38 | 0.0 | 0.0 | 0.00 | 0.00 | 0.00 | 83 | 1021.1 |
| 20260902033838 | 81 | 38 | 0.0 | 0.0 | 0.00 | 0.00 | 0.00 | 83 | 1021.1 |
| 20260902033354 | 81 | 38 | 0.0 | 0.0 | 0.00 | 0.00 | 0.00 | 82 | 1021.2 |
| 20260902032849 | 81 | 38 | 0.0 | 0.0 | 0.00 | 0.00 | 0.00 | 81 | 1021.2 |
| 20260902032329 | 81 | 38 | 0.0 | 0.0 | 0.00 | 0.00 | 0.00 | 80 | 1021.2 |
| 20260902031845 | 81 | 38 | 0.0 | 0.0 | 0.00 | 0.00 | 0.00 | 80 | 1021.2 |
| 20260902031344 | 81 | 38 | 0.0 | 0.0 | 0.00 | 0.00 | 0.00 | 80 | 1021.1 |
| 20260902030841 | 81 | 38 | 0.0 | 0.0 | 0.00 | 0.00 | 0.00 | 81 | 1021.1 |
| 20260902030337 | 81 | 38 | 0.0 | 0.0 | 0.00 | 0.00 | 0.00 | 81 | 1021.2 |
| 20260902025833 | 82 | 38 | 0.0 | 0.0 | 0.00 | 0.00 | 0.00 | 80 | 1021.2 |
| 20260902025353 | 82 | 38 | 0.0 | 0.0 | 0.00 | 0.00 | 0.00 | 79 | 1021.2 |
| 20260902024848 | 82 | 38 | 0.0 | 0.0 | 0.00 | 0.00 | 0.00 | 78 | 1021.2 |
| 20260902024348 | 82 | 38 | 0.0 | 0.0 | 0.00 | 0.00 | 0.00 | 78 | 1021.2 |
| 20260902023904 | 83 | 38 | 0.0 | 0.0 | 0.00 | 0.00 | 0.00 | 78 | 1021.2 |
| 20260902023349 | 83 | 38 | 0.0 | 0.0 | 0.00 | 0.00 | 0.00 | 78 | 1021.2 |
| 20260902022846 | 83 | 38 | 0.0 | 0.0 | 0.00 | 0.00 | 0.00 | 77 | 1021.2 |
| 20260902022345 | 83 | 38 | 0.0 | 0.0 | 0.00 | 0.00 | 0.00 | 75 | 1021.2 |
| 20260902021859 | 83 | 38 | 0.0 | 0.0 | 0.00 | 0.00 | 0.00 | 75 | 1021.1 |
| 20260902021337 | 83 | 38 | 0.0 | 0.0 | 0.00 | 0.00 | 0.00 | 75 | 1021.1 |
| 20260902020834 | 83 | 38 | 0.0 | 0.0 | 0.00 | 0.00 | 0.00 | 74 | 1021.0 |
| 20260902020350 | 83 | 38 | 0.0 | 0.0 | 0.00 | 0.00 | 0.00 | 74 | 1020.9 |
| 20260902015846 | 83 | 38 | 0.0 | 0.0 | 0.00 | 0.00 | 0.00 | 74 | 1020.9 |
| 20260902015345 | 83 | 38 | 0.0 | 0.0 | 0.00 | 0.00 | 0.00 | 74 | 1021.0 |
| 20260902014840 | 83 | 38 | 0.0 | 0.0 | 0.00 | 0.00 | 0.00 | 74 | 1020.9 |
| 20260902014340 | 84 | 38 | 0.0 | 0.0 | 0.00 | 0.00 | 0.00 | 74 | 1020.9 |
| 20260902013839 | 84 | 38 | 0.0 | 0.0 | 0.00 | 0.00 | 0.00 | 75 | 1020.8 |
| 20260902013334 | 84 | 38 | 0.0 | 0.0 | 0.00 | 0.00 | 0.00 | 74 | 1020.7 |
| 20260902012830 | 84 | 38 | 0.0 | 0.0 | 0.00 | 0.00 | 0.00 | 75 | 1020.6 |
| 20260902012349 | 85 | 38 | 0.0 | 0.0 | 0.00 | 0.00 | 0.00 | 75 | 1020.6 |
| 20260902011844 | 85 | 38 | 0.0 | 0.0 | 0.00 | 0.00 | 0.00 | 71 | 1020.5 |
| 20260902011342 | 85 | 38 | 0.0 | 0.0 | 0.00 | 0.00 | 0.00 | 71 | 1020.6 |
| 20260902010840 | 85 | 38 | 0.0 | 0.0 | 0.00 | 0.00 | 0.00 | 71 | 1020.6 |
| 20260902010336 | 85 | 38 | 0.0 | 0.0 | 0.00 | 0.00 | 0.00 | 70 | 1020.6 |
| 20260902005832 | 85 | 38 | 0.0 | 0.0 | 0.00 | 0.00 | 0.00 | 69 | 1020.3 |
| 20260902005330 | 86 | 38 | 0.0 | 0.0 | 0.00 | 0.00 | 0.00 | 69 | 1020.4 |
| 20260902004848 | 86 | 38 | 0.0 | 1.0 | 0.00 | 0.00 | 0.00 | 69 | 1020.3 |
| 20260902004347 | 86 | 38 | 0.0 | 1.0 | 0.00 | 0.00 | 0.00 | 68 | 1020.4 |
| 20260902003844 | 86 | 38 | 0.0 | 1.0 | 0.00 | 0.00 | 0.00 | 68 | 1020.4 |
| 20260902003340 | 86 | 38 | 0.0 | 2.0 | 0.00 | 0.00 | 0.00 | 68 | 1020.4 |
| 20260902002838 | 87 | 38 | 1.0 | 2.0 | 0.00 | 0.00 | 0.00 | 67 | 1020.3 |
| 20260902002341 | 87 | 38 | 0.0 | 0.0 | 0.00 | 0.00 | 0.00 | 67 | 1020.3 |
| 20260902001838 | 87 | 38 | 0.0 | 0.0 | 0.00 | 0.00 | 0.00 | 66 | 1020.2 |
| 20260902001338 | 87 | 38 | 0.0 | 1.0 | 0.00 | 0.00 | 0.00 | 66 | 1020.2 |
| 20260902000853 | 88 | 38 | 0.0 | 1.0 | 0.00 | 0.00 | 0.00 | 65 | 1020.4 |
| 20260902000348 | 88 | 38 | 0.0 | 1.0 | 0.00 | 0.00 | 0.00 | 65 | 1020.3 |
| 20260901235843 | 88 | 38 | 0.0 | 1.0 | 0.00 | 0.00 | 0.00 | 65 | 1020.2 |
| 20260901235341 | 89 | 38 | 0.0 | 1.0 | 0.00 | 0.00 | 0.00 | 65 | 1020.3 |
| 20260901234838 | 89 | 38 | 0.0 | 1.0 | 0.00 | 0.00 | 0.00 | 64 | 1020.2 |
| 20260901234338 | 89 | 38 | 0.0 | 1.0 | 0.00 | 0.00 | 0.00 | 63 | 1020.4 |
| 20260901233915 | 90 | 38 | 0.0 | 1.0 | 0.00 | 0.00 | 0.00 | 63 | 1020.5 |
| 20260901233408 | 90 | 38 | 0.0 | 1.0 | 0.00 | 0.00 | 0.00 | 63 | 1020.4 |
| 20260901232843 | 90 | 38 | 0.0 | 1.0 | 0.00 | 0.00 | 0.00 | 62 | 1020.5 |
| 20260901232341 | 91 | 38 | 0.0 | 0.0 | 0.00 | 0.00 | 0.00 | 61 | 1020.5 |
| 20260901231839 | 91 | 38 | 0.0 | 1.0 | 0.00 | 0.00 | 0.00 | 60 | 1020.5 |
| 20260901231338 | 91 | 38 | 0.0 | 1.0 | 0.00 | 0.00 | 0.00 | 60 | 1020.5 |
| 20260901230832 | 92 | 38 | 0.0 | 3.0 | 0.00 | 0.00 | 0.00 | 58 | 1020.3 |
| 20260901230348 | 92 | 38 | 2.0 | 3.0 | 0.00 | 0.00 | 0.00 | 57 | 1020.3 |
| 20260901225349 | 92 | 225 | 0.0 | 2.0 | 0.00 | 0.00 | 0.00 | 57 | 1020.3 |
| 20260901224830 | 92 | 225 | 1.0 | 2.0 | 0.00 | 0.00 | 0.00 | 58 | 1020.4 |
| 20260901224349 | 92 | 224 | 0.0 | 1.0 | 0.00 | 0.00 | 0.00 | 57 | 1020.4 |
| 20260901223844 | 93 | 224 | 0.0 | 2.0 | 0.00 | 0.00 | 0.00 | 58 | 1020.4 |
| 20260901223340 | 92 | 224 | 327.0 | 327.0 | 0.00 | 0.00 | 0.00 | 57 | 1019.8 |
| 20260901222837 | 93 | 224 | 0.0 | 3.0 | 0.00 | 0.00 | 0.00 | 57 | 1020.2 |
| 20260901222337 | 93 | 222 | 1.0 | 3.0 | 0.00 | 0.00 | 0.00 | 57 | 1020.2 |
| 20260901221834 | 93 | 234 | 1.0 | 2.0 | 0.00 | 0.00 | 0.00 | 56 | 1020.2 |
| 20260901221353 | 93 | 232 | 0.0 | 2.0 | 0.00 | 0.00 | 0.00 | 57 | 1020.1 |
| 20260901220848 | 93 | 232 | 1.0 | 2.0 | 0.00 | 0.00 | 0.00 | 56 | 1020.2 |
| 20260901215850 | 93 | 309 | 0.0 | 2.0 | 0.00 | 0.00 | 0.00 | 55 | 1020.2 |
| 20260901215345 | 93 | 309 | 0.0 | 2.0 | 0.00 | 0.00 | 0.00 | 55 | 1020.1 |
| 20260901214841 | 93 | 309 | 0.0 | 2.0 | 0.00 | 0.00 | 0.00 | 57 | 1020.3 |
| 20260901214341 | 93 | 309 | 0.0 | 3.0 | 0.00 | 0.00 | 0.00 | 56 | 1020.2 |
| 20260901213840 | 93 | 309 | 1.0 | 4.0 | 0.00 | 0.00 | 0.00 | 55 | 1020.3 |
| 20260901213335 | 93 | 49 | 1.0 | 4.0 | 0.00 | 0.00 | 0.00 | 57 | 1020.4 |
| 20260901212838 | 94 | 17 | 2.0 | 3.0 | 0.00 | 0.00 | 0.00 | 56 | 1020.4 |
| 20260901212337 | 94 | 355 | 0.0 | 3.0 | 0.00 | 0.00 | 0.00 | 56 | 1020.4 |
| 20260901211852 | 94 | 5 | 0.0 | 2.0 | 0.00 | 0.00 | 0.00 | 57 | 1020.4 |
| 20260901211330 | 94 | 5 | 0.0 | 2.0 | 0.00 | 0.00 | 0.00 | 56 | 1020.4 |
| 20260901210845 | 95 | 26 | 1.0 | 2.0 | 0.00 | 0.00 | 0.00 | 55 | 1020.4 |
| 20260901210341 | 95 | 5 | 0.0 | 5.0 | 0.00 | 0.00 | 0.00 | 53 | 1020.5 |
| 20260901205839 | 96 | 152 | 1.0 | 5.0 | 0.00 | 0.00 | 0.00 | 51 | 1020.4 |
| 20260901205337 | 96 | 74 | 1.0 | 6.0 | 0.00 | 0.00 | 0.00 | 52 | 1020.4 |
| 20260901204833 | 96 | 360 | 2.0 | 6.0 | 0.00 | 0.00 | 0.00 | 53 | 1020.4 |
| 20260901204352 | 95 | 305 | 1.0 | 3.0 | 0.00 | 0.00 | 0.00 | 55 | 1020.5 |
| 20260901203911 | 95 | 113 | 2.0 | 3.0 | 0.00 | 0.00 | 0.00 | 54 | 1020.5 |
| 20260901203336 | 94 | 338 | 0.0 | 2.0 | 0.00 | 0.00 | 0.00 | 55 | 1020.6 |
| 20260901202834 | 94 | 339 | 1.0 | 2.0 | 0.00 | 0.00 | 0.00 | 55 | 1020.6 |
| 20260901202334 | 94 | 340 | 0.0 | 5.0 | 0.00 | 0.00 | 0.00 | 55 | 1020.6 |
| 20260901201850 | 94 | 74 | 1.0 | 5.0 | 0.00 | 0.00 | 0.00 | 57 | 1020.8 |
| 20260901201347 | 94 | 74 | 2.0 | 5.0 | 0.00 | 0.00 | 0.00 | 54 | 1020.8 |
| 20260901200904 | 95 | 39 | 3.0 | 6.0 | 0.00 | 0.00 | 0.00 | 53 | 1020.9 |
| 20260901200339 | 95 | 71 | 2.0 | 6.0 | 0.00 | 0.00 | 0.00 | 53 | 1020.9 |
| 20260901195856 | 96 | 342 | 1.0 | 8.0 | 0.00 | 0.00 | 0.00 | 52 | 1020.9 |
| 20260901195334 | 96 | 117 | 4.0 | 7.0 | 0.00 | 0.00 | 0.00 | 51 | 1020.9 |
| 20260901194832 | 97 | 71 | 2.0 | 8.0 | 0.00 | 0.00 | 0.00 | 51 | 1021.0 |
| 20260901194411 | 97 | 80 | 3.0 | 8.0 | 0.00 | 0.00 | 0.00 | 52 | 1021.0 |
| 20260901193904 | 97 | 169 | 2.0 | 7.0 | 0.00 | 0.00 | 0.00 | 52 | 1021.2 |
| 20260901193338 | 96 | 155 | 2.0 | 7.0 | 0.00 | 0.00 | 0.00 | 52 | 1021.2 |
| 20260901192840 | 96 | 226 | 2.0 | 5.0 | 0.00 | 0.00 | 0.00 | 52 | 1021.3 |
| 20260901192359 | 95 | 153 | 2.0 | 6.0 | 0.00 | 0.00 | 0.00 | 53 | 1021.4 |
| 20260901191833 | 95 | 211 | 2.0 | 6.0 | 0.00 | 0.00 | 0.00 | 54 | 1021.4 |
| 20260901191332 | 94 | 16 | 1.0 | 5.0 | 0.00 | 0.00 | 0.00 | 56 | 1021.5 |
| 20260901190848 | 93 | 25 | 2.0 | 4.0 | 0.00 | 0.00 | 0.00 | 56 | 1021.6 |
| 20260901185829 | 92 | 190 | 2.0 | 3.0 | 0.00 | 0.00 | 0.00 | 60 | 1021.8 |
| 20260901185409 | 92 | 44 | 1.0 | 2.0 | 0.00 | 0.00 | 0.00 | 59 | 1021.8 |
| 20260901184843 | 91 | 43 | 0.0 | 1.0 | 0.00 | 0.00 | 0.00 | 63 | 1021.9 |
| 20260901184342 | 91 | 43 | 0.0 | 2.0 | 0.00 | 0.00 | 0.00 | 63 | 1022.0 |
| 20260901183858 | 91 | 44 | 1.0 | 2.0 | 0.00 | 0.00 | 0.00 | 61 | 1022.0 |
| 20260901183332 | 92 | 44 | 0.0 | 1.0 | 0.00 | 0.00 | 0.00 | 61 | 1021.9 |
| 20260901182849 | 92 | 44 | 0.0 | 6.0 | 0.00 | 0.00 | 0.00 | 60 | 1022.1 |
| 20260901182349 | 93 | 80 | 2.0 | 6.0 | 0.00 | 0.00 | 0.00 | 58 | 1022.0 |
| 20260901181846 | 93 | 21 | 2.0 | 4.0 | 0.00 | 0.00 | 0.00 | 58 | 1022.0 |
| 20260901181343 | 95 | 5 | 2.0 | 4.0 | 0.00 | 0.00 | 0.00 | 56 | 1022.0 |
| 20260901180841 | 95 | 128 | 1.0 | 7.0 | 0.00 | 0.00 | 0.00 | 56 | 1022.1 |
| 20260901180357 | 94 | 125 | 3.0 | 7.0 | 0.00 | 0.00 | 0.00 | 57 | 1022.1 |
| 20260901175849 | 94 | 96 | 2.0 | 4.0 | 0.00 | 0.00 | 0.00 | 59 | 1022.1 |
| 20260901175333 | 93 | 109 | 2.0 | 4.0 | 0.00 | 0.00 | 0.00 | 59 | 1022.2 |
| 20260901174831 | 92 | 121 | 2.0 | 4.0 | 0.00 | 0.00 | 0.00 | 61 | 1022.2 |
| 20260901174350 | 92 | 21 | 0.0 | 3.0 | 0.00 | 0.00 | 0.00 | 62 | 1022.2 |
| 20260901173848 | 92 | 21 | 1.0 | 4.0 | 0.00 | 0.00 | 0.00 | 61 | 1022.4 |
| 20260901173343 | 92 | 304 | 1.0 | 4.0 | 0.00 | 0.00 | 0.00 | 62 | 1022.5 |
| 20260901172858 | 93 | 71 | 1.0 | 3.0 | 0.00 | 0.00 | 0.00 | 61 | 1022.5 |
| 20260901172336 | 93 | 351 | 1.0 | 4.0 | 0.00 | 0.00 | 0.00 | 61 | 1022.5 |
| 20260901171835 | 93 | 323 | 1.0 | 4.0 | 0.00 | 0.00 | 0.00 | 62 | 1022.5 |
| 20260901171334 | 92 | 180 | 1.0 | 5.0 | 0.00 | 0.00 | 0.00 | 60 | 1022.6 |
| 20260901170851 | 92 | 184 | 1.0 | 8.0 | 0.00 | 0.00 | 0.00 | 61 | 1022.8 |
| 20260901170346 | 92 | 238 | 3.0 | 8.0 | 0.00 | 0.00 | 0.00 | 62 | 1022.8 |
| 20260901165843 | 92 | 349 | 1.0 | 5.0 | 0.00 | 0.00 | 0.00 | 62 | 1022.8 |
| 20260901165340 | 92 | 329 | 1.0 | 5.0 | 0.00 | 0.00 | 0.00 | 63 | 1022.9 |
| 20260901164839 | 92 | 169 | 1.0 | 6.0 | 0.00 | 0.00 | 0.00 | 64 | 1023.0 |
| 20260901164339 | 91 | 248 | 2.0 | 6.0 | 0.00 | 0.00 | 0.00 | 64 | 1022.9 |
| 20260901163837 | 91 | 203 | 2.0 | 4.0 | 0.00 | 0.00 | 0.00 | 65 | 1023.1 |
| 20260901163353 | 91 | 46 | 1.0 | 4.0 | 0.00 | 0.00 | 0.00 | 64 | 1023.1 |
| 20260901162832 | 91 | 19 | 3.0 | 4.0 | 0.00 | 0.00 | 0.00 | 62 | 1023.2 |
| 20260901162408 | 92 | 26 | 2.0 | 4.0 | 0.00 | 0.00 | 0.00 | 63 | 1023.2 |
| 20260901161847 | 92 | 117 | 1.0 | 4.0 | 0.00 | 0.00 | 0.00 | 63 | 1023.2 |
| 20260901161346 | 92 | 51 | 2.0 | 4.0 | 0.00 | 0.00 | 0.00 | 65 | 1023.3 |
| 20260901160901 | 91 | 43 | 3.0 | 4.0 | 0.00 | 0.00 | 0.00 | 65 | 1023.3 |
| 20260901160335 | 91 | 360 | 2.0 | 4.0 | 0.00 | 0.00 | 0.00 | 65 | 1023.3 |
| 20260901155832 | 91 | 333 | 2.0 | 6.0 | 0.00 | 0.00 | 0.00 | 65 | 1023.4 |
| 20260901155352 | 90 | 113 | 3.0 | 7.0 | 0.00 | 0.00 | 0.00 | 66 | 1023.5 |
| 20260901154846 | 90 | 124 | 2.0 | 8.0 | 0.00 | 0.00 | 0.00 | 66 | 1023.5 |
| 20260901154345 | 90 | 87 | 4.0 | 7.0 | 0.00 | 0.00 | 0.00 | 66 | 1023.6 |
| 20260901153843 | 90 | 153 | 4.0 | 6.0 | 0.00 | 0.00 | 0.00 | 66 | 1023.6 |
| 20260901153359 | 90 | 75 | 2.0 | 5.0 | 0.00 | 0.00 | 0.00 | 67 | 1023.6 |
| 20260901152834 | 89 | 101 | 2.0 | 7.0 | 0.00 | 0.00 | 0.00 | 69 | 1023.7 |
| 20260901152333 | 89 | 144 | 2.0 | 7.0 | 0.00 | 0.00 | 0.00 | 68 | 1023.8 |
| 20260901151851 | 89 | 13 | 2.0 | 4.0 | 0.00 | 0.00 | 0.00 | 69 | 1023.7 |
| 20260901151408 | 89 | 57 | 2.0 | 4.0 | 0.00 | 0.00 | 0.00 | 67 | 1023.8 |
| 20260901150845 | 88 | 20 | 1.0 | 4.0 | 0.00 | 0.00 | 0.00 | 70 | 1023.8 |
| 20260901150340 | 88 | 96 | 2.0 | 4.0 | 0.00 | 0.00 | 0.00 | 70 | 1023.7 |
| 20260901145857 | 87 | 44 | 2.0 | 4.0 | 0.00 | 0.00 | 0.00 | 70 | 1023.7 |
| 20260901145335 | 87 | 75 | 2.0 | 6.0 | 0.00 | 0.00 | 0.00 | 71 | 1023.7 |
| 20260901144853 | 86 | 96 | 2.0 | 6.0 | 0.00 | 0.00 | 0.00 | 72 | 1023.8 |
| 20260901144352 | 86 | 321 | 1.0 | 4.0 | 0.00 | 0.00 | 0.00 | 72 | 1023.8 |
| 20260901143847 | 86 | 321 | 2.0 | 4.0 | 0.00 | 0.00 | 0.00 | 73 | 1023.9 |
| 20260901143343 | 86 | 311 | 1.0 | 6.0 | 0.00 | 0.00 | 0.00 | 73 | 1023.7 |
| 20260901142844 | 86 | 130 | 3.0 | 6.0 | 0.00 | 0.00 | 0.00 | 73 | 1023.6 |
| 20260901142344 | 86 | 121 | 2.0 | 4.0 | 0.00 | 0.00 | 0.00 | 73 | 1023.8 |
| 20260901141840 | 86 | 80 | 2.0 | 4.0 | 0.00 | 0.00 | 0.00 | 73 | 1023.8 |
| 20260901141339 | 86 | 13 | 2.0 | 4.0 | 0.00 | 0.00 | 0.00 | 73 | 1023.7 |
| 20260901140851 | 85 | 74 | 1.0 | 3.0 | 0.00 | 0.00 | 0.00 | 74 | 1023.7 |
| 20260901140407 | 85 | 25 | 2.0 | 4.0 | 0.00 | 0.00 | 0.00 | 74 | 1023.9 |
| 20260901135840 | 85 | 25 | 2.0 | 5.0 | 0.00 | 0.00 | 0.00 | 75 | 1023.8 |
| 20260901135339 | 84 | 64 | 2.0 | 4.0 | 0.00 | 0.00 | 0.00 | 76 | 1023.8 |
| 20260901134836 | 84 | 87 | 1.0 | 3.0 | 0.00 | 0.00 | 0.00 | 76 | 1023.7 |
| 20260901134335 | 84 | 87 | 1.0 | 3.0 | 0.00 | 0.00 | 0.00 | 75 | 1023.6 |
| 20260901133852 | 83 | 88 | 0.0 | 2.0 | 0.00 | 0.00 | 0.00 | 76 | 1023.7 |
| 20260901133346 | 83 | 88 | 0.0 | 3.0 | 0.00 | 0.00 | 0.00 | 77 | 1023.7 |
| 20260901132845 | 83 | 88 | 0.0 | 3.0 | 0.00 | 0.00 | 0.00 | 77 | 1023.7 |
| 20260901132344 | 82 | 88 | 1.0 | 3.0 | 0.00 | 0.00 | 0.00 | 78 | 1023.6 |
| 20260901131842 | 82 | 103 | 1.0 | 3.0 | 0.00 | 0.00 | 0.00 | 79 | 1023.7 |
| 20260901131341 | 81 | 103 | 2.0 | 3.0 | 0.00 | 0.00 | 0.00 | 80 | 1023.7 |
| 20260901130841 | 80 | 104 | 1.0 | 3.0 | 0.00 | 0.00 | 0.00 | 81 | 1023.8 |
| 20260901130357 | 79 | 138 | 1.0 | 2.0 | 0.00 | 0.00 | 0.00 | 83 | 1023.7 |
| 20260901125831 | 78 | 138 | 0.0 | 3.0 | 0.00 | 0.00 | 0.00 | 86 | 1023.7 |
| 20260901125351 | 77 | 138 | 1.0 | 3.0 | 0.00 | 0.00 | 0.00 | 88 | 1023.8 |
| 20260901124846 | 76 | 355 | 1.0 | 2.0 | 0.00 | 0.00 | 0.00 | 89 | 1023.7 |
| 20260901124344 | 75 | 350 | 1.0 | 1.0 | 0.00 | 0.00 | 0.00 | 90 | 1023.7 |
| 20260901123840 | 75 | 350 | 0.0 | 1.0 | 0.00 | 0.00 | 0.00 | 91 | 1023.6 |
| 20260901123336 | 74 | 350 | 0.0 | 1.0 | 0.00 | 0.00 | 0.00 | 91 | 1023.6 |
| 20260901122851 | 74 | 350 | 0.0 | 1.0 | 0.00 | 0.00 | 0.00 | 91 | 1023.5 |
| 20260901122349 | 74 | 350 | 0.0 | 2.0 | 0.00 | 0.00 | 0.00 | 92 | 1023.6 |
| 20260901121845 | 74 | 350 | 1.0 | 2.0 | 0.00 | 0.00 | 0.00 | 92 | 1023.5 |
| 20260901121344 | 73 | 350 | 1.0 | 1.0 | 0.00 | 0.00 | 0.00 | 92 | 1023.4 |
| 20260901120841 | 73 | 350 | 0.0 | 1.0 | 0.00 | 0.00 | 0.00 | 93 | 1023.4 |
| 20260901120356 | 73 | 351 | 0.0 | 0.0 | 0.00 | 0.00 | 0.00 | 94 | 1023.3 |
| 20260901115833 | 72 | 351 | 0.0 | 0.0 | 0.00 | 0.00 | 0.00 | 95 | 1023.2 |
| 20260901115351 | 72 | 351 | 0.0 | 0.0 | 0.00 | 0.00 | 0.00 | 95 | 1023.1 |
| 20260901114847 | 72 | 351 | 0.0 | 0.0 | 0.00 | 0.00 | 0.00 | 95 | 1023.0 |
| 20260901114346 | 72 | 351 | 0.0 | 0.0 | 0.00 | 0.00 | 0.00 | 95 | 1022.9 |
| 20260901113843 | 72 | 351 | 0.0 | 0.0 | 0.00 | 0.00 | 0.00 | 95 | 1022.8 |
| 20260901113339 | 72 | 351 | 0.0 | 0.0 | 0.00 | 0.00 | 0.00 | 95 | 1022.8 |
| 20260901112839 | 72 | 351 | 0.0 | 0.0 | 0.00 | 0.00 | 0.00 | 95 | 1022.7 |
| 20260901112338 | 72 | 351 | 0.0 | 0.0 | 0.00 | 0.00 | 0.00 | 95 | 1022.6 |
| 20260901111834 | 72 | 351 | 0.0 | 0.0 | 0.00 | 0.00 | 0.00 | 95 | 1022.6 |
| 20260901111333 | 72 | 351 | 0.0 | 0.0 | 0.00 | 0.00 | 0.00 | 95 | 1022.4 |
| 20260901110850 | 72 | 351 | 0.0 | 0.0 | 0.00 | 0.00 | 0.00 | 95 | 1022.4 |
| 20260901110345 | 72 | 351 | 0.0 | 0.0 | 0.00 | 0.00 | 0.00 | 95 | 1022.5 |
| 20260901105903 | 72 | 351 | 0.0 | 0.0 | 0.00 | 0.00 | 0.00 | 95 | 1022.3 |
| 20260901105341 | 72 | 351 | 0.0 | 0.0 | 0.00 | 0.00 | 0.00 | 95 | 1022.2 |
| 20260901104837 | 72 | 351 | 0.0 | 0.0 | 0.00 | 0.00 | 0.00 | 95 | 1022.2 |
| 20260901104335 | 72 | 351 | 0.0 | 0.0 | 0.00 | 0.00 | 0.00 | 95 | 1022.3 |
| 20260901103854 | 72 | 351 | 0.0 | 0.0 | 0.00 | 0.00 | 0.00 | 95 | 1022.2 |
| 20260901103347 | 72 | 351 | 0.0 | 0.0 | 0.00 | 0.00 | 0.00 | 95 | 1022.2 |
| 20260901102845 | 72 | 351 | 0.0 | 0.0 | 0.00 | 0.00 | 0.00 | 94 | 1022.2 |
| 20260901102344 | 72 | 350 | 0.0 | 0.0 | 0.00 | 0.00 | 0.00 | 94 | 1022.2 |
| 20260901101841 | 72 | 351 | 0.0 | 0.0 | 0.00 | 0.00 | 0.00 | 94 | 1022.1 |
| 20260901101337 | 72 | 351 | 0.0 | 0.0 | 0.00 | 0.00 | 0.00 | 94 | 1022.2 |
| 20260901100836 | 72 | 351 | 0.0 | 0.0 | 0.00 | 0.00 | 0.00 | 94 | 1022.0 |
| 20260901100332 | 72 | 351 | 0.0 | 0.0 | 0.00 | 0.00 | 0.00 | 94 | 1022.0 |
| 20260901095847 | 73 | 351 | 0.0 | 0.0 | 0.00 | 0.00 | 0.00 | 94 | 1022.0 |
| 20260901095347 | 73 | 351 | 0.0 | 0.0 | 0.00 | 0.00 | 0.00 | 93 | 1022.0 |
| 20260901094843 | 73 | 351 | 0.0 | 0.0 | 0.00 | 0.00 | 0.00 | 93 | 1022.0 |
| 20260901094402 | 73 | 351 | 0.0 | 0.0 | 0.00 | 0.00 | 0.00 | 93 | 1022.0 |
| 20260901093856 | 73 | 351 | 0.0 | 0.0 | 0.00 | 0.00 | 0.00 | 94 | 1022.1 |
| 20260901093331 | 73 | 351 | 0.0 | 0.0 | 0.00 | 0.00 | 0.00 | 94 | 1022.0 |
| 20260901092848 | 73 | 351 | 0.0 | 0.0 | 0.00 | 0.00 | 0.00 | 94 | 1022.0 |
| 20260901092346 | 73 | 351 | 0.0 | 0.0 | 0.00 | 0.00 | 0.00 | 93 | 1022.0 |
| 20260901091844 | 73 | 351 | 0.0 | 0.0 | 0.00 | 0.00 | 0.00 | 93 | 1021.9 |
| 20260901091403 | 73 | 351 | 0.0 | 0.0 | 0.00 | 0.00 | 0.00 | 93 | 1021.9 |
| 20260901090836 | 73 | 351 | 0.0 | 0.0 | 0.00 | 0.00 | 0.00 | 93 | 1021.8 |
| 20260901090332 | 73 | 351 | 0.0 | 0.0 | 0.00 | 0.00 | 0.00 | 92 | 1021.7 |
| 20260901085830 | 73 | 351 | 0.0 | 0.0 | 0.00 | 0.00 | 0.00 | 92 | 1021.8 |
| 20260901085331 | 73 | 351 | 0.0 | 0.0 | 0.00 | 0.00 | 0.00 | 92 | 1021.7 |
| 20260901084848 | 73 | 351 | 0.0 | 0.0 | 0.00 | 0.00 | 0.00 | 92 | 1021.7 |
| 20260901084347 | 73 | 351 | 0.0 | 0.0 | 0.00 | 0.00 | 0.00 | 92 | 1021.7 |
| 20260901083845 | 73 | 351 | 0.0 | 0.0 | 0.00 | 0.00 | 0.00 | 91 | 1021.6 |
| 20260901083358 | 74 | 351 | 0.0 | 0.0 | 0.00 | 0.00 | 0.00 | 91 | 1021.6 |
| 20260901082837 | 74 | 351 | 0.0 | 0.0 | 0.00 | 0.00 | 0.00 | 92 | 1021.6 |
| 20260901082336 | 74 | 351 | 0.0 | 0.0 | 0.00 | 0.00 | 0.00 | 92 | 1021.7 |
| 20260901081832 | 74 | 351 | 0.0 | 0.0 | 0.00 | 0.00 | 0.00 | 92 | 1021.7 |
| 20260901081351 | 74 | 351 | 0.0 | 0.0 | 0.00 | 0.00 | 0.00 | 92 | 1021.5 |
| 20260901080847 | 74 | 351 | 0.0 | 0.0 | 0.00 | 0.00 | 0.00 | 91 | 1021.6 |
| 20260901080343 | 74 | 351 | 0.0 | 0.0 | 0.00 | 0.00 | 0.00 | 91 | 1021.6 |
| 20260901075837 | 74 | 351 | 0.0 | 0.0 | 0.00 | 0.00 | 0.00 | 91 | 1021.7 |
| 20260901075336 | 74 | 351 | 0.0 | 0.0 | 0.00 | 0.00 | 0.00 | 91 | 1021.6 |
| 20260901074834 | 74 | 351 | 0.0 | 0.0 | 0.00 | 0.00 | 0.00 | 91 | 1021.6 |
| 20260901074333 | 74 | 351 | 0.0 | 0.0 | 0.00 | 0.00 | 0.00 | 91 | 1021.5 |
| 20260901073850 | 74 | 351 | 0.0 | 0.0 | 0.00 | 0.00 | 0.00 | 91 | 1021.5 |